Fairbanks, AK

10:53 AM AKDT on March 27, 2017 (GMT -0800)
Fairbanks International

Weather History for PAFA - May, 2012

Change the Weather History Date:

Tuesday, May 22, 2012

  Actual Average Record
Temperature  
Mean Temperature 58 °F 52 °F  
Max Temperature 71 °F 64 °F 84 °F (1963)
Min Temperature 44 °F 40 °F 26 °F (1933)
Degree Days  
Heating Degree Days 7 13  
Month to date heating degree days 430 384  
Since 1 July heating degree days 13681 13408  
Cooling Degree Days 0 0  
Month to date cooling degree days 0 0  
Year to date cooling degree days 0 0  
Growing Degree Days 8 (Base 50)    
Moisture  
Dew Point 36 °F    
Average Humidity 41    
Maximum Humidity 76    
Minimum Humidity 13    
Precipitation  
Precipitation T in 0.02 in 0.30 in (1922)
Month to date precipitation 0.14 0.39  
Year to date precipitation 2.06 1.95  
Snow  
Snow 0.00 in 0.00 in T in (1968)
Month to date snowfall T 0.8  
Since 1 July snowfall 57.4 64.9  
Snow Depth 0.00 in    
Sea Level Pressure  
Sea Level Pressure 29.66 in    
Wind  
Wind Speed 4 mph (East)    
Max Wind Speed 13 mph    
Max Gust Speed -    
Visibility 10 miles    
Events      
T = Trace of Precipitation, MM = Missing Value Source: NWS Daily Summary

Daily Weather History Graph

Daily Weather History Graph

Search for Another Location

Airport or City:

Trip Planner

Search our weather history database for the weather conditions in past years. The results will help you decide how hot, cold, wet, or windy it might be!

Date:

Astronomy

May. 22, 2012 Rise Set
Actual Time 4:02 AM AKDT 11:36 PM AKDT
Civil Twilight 2:20 AM AKDT 1:15 AM AKDT
Nautical Twilight Sun does not rise Sun does not rise
Astronomical Twilight Sun does not rise Sun does not rise
Moon 5:11 AM AKDT (5/22) 12:41 AM AKDT (5/22)
Length of Visible Light 22h 55m
Length of Day
19h 33m
Waxing Crescent, 3% of the Moon is Illuminated
May 22
Waxing Crescent
May 28
First Quarter
Jun 4
Full
Jun 11
Last Quarter
Jun 19
New

Hourly Weather History & Observations

Time (AKDT) Temp. Dew Point Humidity Pressure Visibility Wind Dir Wind Speed Gust Speed Precip Events Conditions
12:53 AM 54.0 °F 37.0 °F 53% 29.58 in 10.0 mi NNE 5.8 mph - N/A   Mostly Cloudy
1:53 AM 53.1 °F 35.1 °F 50% 29.59 in 10.0 mi NNE 4.6 mph - N/A   Mostly Cloudy
2:53 AM 48.9 °F 37.0 °F 64% 29.60 in 10.0 mi Calm Calm - N/A   Mostly Cloudy
3:53 AM 48.0 °F 37.9 °F 68% 29.61 in 10.0 mi Calm Calm - N/A   Mostly Cloudy
4:53 AM 45.0 °F 37.9 °F 76% 29.62 in 10.0 mi Calm Calm - N/A   Mostly Cloudy
5:53 AM 48.0 °F 39.9 °F 74% 29.62 in 10.0 mi Calm Calm - N/A   Mostly Cloudy
6:53 AM 54.0 °F 35.1 °F 49% 29.63 in 10.0 mi ENE 3.5 mph - N/A   Mostly Cloudy
7:53 AM 57.9 °F 33.1 °F 39% 29.64 in 10.0 mi Calm Calm - N/A   Mostly Cloudy
8:53 AM 60.1 °F 34.0 °F 38% 29.64 in 10.0 mi Calm Calm - N/A   Mostly Cloudy
9:53 AM 63.0 °F 33.1 °F 33% 29.65 in 10.0 mi East 4.6 mph - N/A   Mostly Cloudy
10:53 AM 66.9 °F 30.9 °F 26% 29.65 in 10.0 mi East 6.9 mph - N/A   Mostly Cloudy
11:53 AM 68.0 °F 30.9 °F 25% 29.64 in 10.0 mi East 5.8 mph - N/A   Mostly Cloudy
12:53 PM 71.1 °F 30.9 °F 23% 29.64 in 10.0 mi East 8.1 mph - N/A   Mostly Cloudy
1:53 PM 70.0 °F 30.9 °F 24% 29.65 in 10.0 mi East 12.7 mph - N/A   Mostly Cloudy
2:53 PM 70.0 °F 30.0 °F 23% 29.66 in 10.0 mi North 5.8 mph - 0.00 in   Mostly Cloudy
3:53 PM 70.0 °F 30.9 °F 24% 29.66 in 10.0 mi East 9.2 mph - N/A   Mostly Cloudy
4:53 PM 71.1 °F 32.0 °F 24% 29.67 in 10.0 mi East 9.2 mph - N/A   Mostly Cloudy
5:53 PM 70.0 °F 33.1 °F 26% 29.68 in 10.0 mi East 8.1 mph - N/A   Overcast
6:53 PM 69.1 °F 34.0 °F 27% 29.69 in 10.0 mi ESE 9.2 mph - N/A   Overcast
7:53 PM 66.9 °F 37.0 °F 33% 29.71 in 10.0 mi Variable 4.6 mph - N/A   Overcast
8:53 PM 63.0 °F 39.9 °F 43% 29.73 in 10.0 mi SSW 5.8 mph - N/A   Mostly Cloudy
9:53 PM 61.0 °F 44.1 °F 54% 29.74 in 10.0 mi WSW 3.5 mph - N/A   Mostly Cloudy
10:53 PM 60.1 °F 44.1 °F 55% 29.75 in 10.0 mi Calm Calm - N/A   Mostly Cloudy
11:53 PM 59.0 °F 44.1 °F 58% 29.77 in 10.0 mi SSW 4.6 mph - N/A   Mostly Cloudy